Location: Isle of Man Observatory
(54.1776°N, 4.6264°W)
Time: 20:23:43
(UTC+02:00)

ISS - Visible Passes

Search period start: 22 September 2018 00:00
Search period end: 02 October 2018 00:00
Orbit: 403 x 408 km, 51.6° (Epoch: 22 September)

Date Brightness Start Highest point End Pass type
(mag) Time Alt. Az. Time Alt. Az. Time Alt. Az.
23 Sep -1.1 22:44:44 10° SW 22:45:03 12° SW 22:45:03 12° SW visible
24 Sep -2.4 21:53:17 10° SSW 21:55:36 23° SSE 21:55:36 23° SSE visible
25 Sep -2.0 21:02:04 10° S 21:04:19 17° SSE 21:06:00 13° ESE visible
25 Sep -2.0 22:37:08 10° WSW 22:38:41 24° SW 22:38:41 24° SW visible
26 Sep -3.1 21:45:27 10° SW 21:48:30 35° SSE 21:48:58 33° SE visible
26 Sep -0.7 23:21:29 10° WSW 23:21:38 11° WSW 23:21:38 11° WSW visible
27 Sep -2.6 20:53:52 10° SW 20:56:43 27° SSE 20:59:08 13° E visible
27 Sep -2.6 22:29:38 10° WSW 22:31:49 35° SW 22:31:49 35° SW visible
28 Sep -3.4 21:37:48 10° WSW 21:41:00 47° SSE 21:41:55 35° ESE visible
28 Sep -0.9 23:14:04 10° W 23:14:36 14° W 23:14:36 14° W visible
29 Sep -3.0 20:46:03 10° SW 20:49:09 39° SSE 20:51:58 12° E visible
29 Sep -2.9 22:22:10 10° W 22:24:38 42° SW 22:24:38 42° SW visible
30 Sep -3.6 21:30:16 10° WSW 21:33:31 55° S 21:34:39 34° ESE visible
30 Sep -0.9 23:06:38 10° W 23:07:19 15° W 23:07:19 15° W visible
01 Oct -3.3 20:38:23 10° WSW 20:41:37 50° S 20:44:38 11° E visible
01 Oct -2.9 22:14:41 10° W 22:17:18 42° SW 22:17:18 42° SW visible
